When you browse on this site, cookies collect data to enhance your experience and personalize the content and advertising you see.
Visit our Privacy Policy to learn more. By continuing to use the site, you agree to this use of cookies and data.
  • In Hungary
  • List of Countries
  • For 7 days
  • Water Temperature
  • Satellite Maps
  • Weather Map
  • News
  • Weather Widgets
  • user-avatar
    Login

    Hourly Weather Zelenyy

    Today, 21 November, Wednesday

    Time Temperature Precipitation Wind Pressure Humidity
    00:00 -7°C° 0 mm 4 mps 750 mmHg 81%
    01:00 -7°C° 0 mm 4 mps 750 mmHg 80%
    02:00 -5°C° 0 mm 4 mps 749 mmHg 79%
    03:00 -5°C° 0 mm 4 mps 749 mmHg 79%
    04:00 -5°C° 0.1 mm 4 mps 748 mmHg 80%
    05:00 -6°C° 0.1 mm 5 mps 748 mmHg 82%
    06:00 -6°C° 0.1 mm 5 mps 747 mmHg 83%
    07:00 -5°C° 0.1 mm 5 mps 747 mmHg 83%
    08:00 -5°C° 0.1 mm 5 mps 747 mmHg 83%
    09:00 -5°C° 0 mm 5 mps 746 mmHg 83%
    10:00 -4°C° 0.2 mm 6 mps 746 mmHg 81%
    11:00 -3°C° 0.2 mm 6 mps 746 mmHg 79%
    12:00 -3°C° 0.2 mm 6 mps 746 mmHg 77%
    13:00 -4°C° 0.1 mm 6 mps 746 mmHg 75%
    14:00 -4°C° 0.1 mm 5 mps 747 mmHg 73%
    15:00 -5°C° 0.1 mm 5 mps 747 mmHg 71%
    16:00 -6°C° 0 mm 5 mps 747 mmHg 73%
    17:00 -6°C° 0 mm 5 mps 748 mmHg 75%
    18:00 -7°C° 0 mm 4 mps 748 mmHg 76%
    19:00 -7°C° 0 mm 4 mps 748 mmHg 78%
    20:00 -8°C° 0 mm 4 mps 748 mmHg 79%
    21:00 -8°C° 0 mm 4 mps 748 mmHg 81%
    22:00 -8°C° 0 mm 4 mps 747 mmHg 82%
    23:00 -8°C° 0 mm 4 mps 747 mmHg 83%

    Tomorrow, 22 November, Thursday

    Time Temperature Precipitation Wind Pressure Humidity
    00:00 -8°C° 0 mm 4 mps 747 mmHg 84%
    01:00 -8°C° 0 mm 4 mps 747 mmHg 85%
    02:00 -8°C° 0 mm 4 mps 746 mmHg 87%
    03:00 -8°C° 0 mm 4 mps 746 mmHg 88%
    04:00 -8°C° 0 mm 4 mps 745 mmHg 88%
    05:00 -8°C° 0 mm 4 mps 745 mmHg 88%
    06:00 -8°C° 0 mm 4 mps 744 mmHg 88%
    07:00 -7°C° 0.1 mm 5 mps 743 mmHg 86%
    08:00 -7°C° 0.1 mm 5 mps 743 mmHg 85%
    09:00 -6°C° 0.1 mm 6 mps 742 mmHg 83%
    10:00 -6°C° 0.2 mm 6 mps 741 mmHg 82%
    11:00 -7°C° 0.2 mm 7 mps 740 mmHg 82%
    12:00 -7°C° 0.2 mm 7 mps 740 mmHg 81%
    13:00 -6°C° 0.3 mm 6 mps 739 mmHg 82%
    14:00 -6°C° 0.3 mm 6 mps 738 mmHg 84%
    15:00 -6°C° 0.3 mm 6 mps 737 mmHg 85%
    16:00 -5°C° 0.3 mm 5 mps 737 mmHg 87%
    17:00 -5°C° 0.3 mm 5 mps 736 mmHg 88%
    18:00 -5°C° 0.3 mm 5 mps 735 mmHg 89%
    19:00 -5°C° 0.5 mm 6 mps 735 mmHg 86%
    20:00 -7°C° 0.5 mm 7 mps 735 mmHg 82%
    21:00 -7°C° 0.5 mm 7 mps 735 mmHg 78%
    22:00 -8°C° 0.1 mm 7 mps 736 mmHg 78%
    23:00 -8°C° 0.1 mm 6 mps 736 mmHg 79%

    Day after tomorrow, 23 November, Friday

    Time Temperature Precipitation Wind Pressure Humidity
    00:00 -8°C° 0.1 mm 5 mps 737 mmHg 79%
    01:00 -8°C° 0.1 mm 5 mps 738 mmHg 79%
    02:00 -10°C° 0.1 mm 6 mps 739 mmHg 79%
    03:00 -10°C° 0.1 mm 6 mps 739 mmHg 79%
    04:00 -10°C° 0.2 mm 6 mps 740 mmHg 80%
    05:00 -10°C° 0.2 mm 6 mps 741 mmHg 81%
    06:00 -10°C° 0.2 mm 6 mps 742 mmHg 82%
    07:00 -10°C° 0 mm 6 mps 743 mmHg 81%
    08:00 -11°C° 0 mm 6 mps 744 mmHg 79%
    09:00 -11°C° 0 mm 6 mps 745 mmHg 78%
    10:00 -10°C° 0 mm 6 mps 746 mmHg 77%
    11:00 -10°C° 0 mm 6 mps 747 mmHg 76%
    12:00 -11°C° 0 mm 7 mps 748 mmHg 75%
    13:00 -10°C° 0 mm 6 mps 748 mmHg 75%
    14:00 -11°C° 0 mm 6 mps 749 mmHg 75%
    15:00 -11°C° 0 mm 5 mps 750 mmHg 75%
    16:00 -11°C° 0 mm 5 mps 750 mmHg 78%
    17:00 -11°C° 0 mm 4 mps 750 mmHg 80%
    18:00 -11°C° 0 mm 4 mps 751 mmHg 82%
    19:00 -11°C° 0 mm 4 mps 751 mmHg 83%
    20:00 -11°C° 0 mm 4 mps 751 mmHg 84%
    21:00 -11°C° 0 mm 4 mps 751 mmHg 85%
    22:00 -11°C° 0 mm 4 mps 751 mmHg 85%
    23:00 -11°C° 0 mm 4 mps 751 mmHg 85%

    24 November, Saturday

    Time Temperature Precipitation Wind Pressure Humidity
    00:00 -11°C° 0 mm 4 mps 751 mmHg 85%
    01:00 -11°C° 0 mm 4 mps 751 mmHg 86%
    02:00 -11°C° 0 mm 4 mps 751 mmHg 87%
    03:00 -11°C° 0 mm 4 mps 751 mmHg 87%
    04:00 -11°C° 0 mm 4 mps 750 mmHg 88%
    05:00 -10°C° 0 mm 4 mps 750 mmHg 89%
    06:00 -11°C° 0 mm 5 mps 749 mmHg 90%
    07:00 -11°C° 0 mm 5 mps 749 mmHg 89%
    08:00 -10°C° 0 mm 5 mps 749 mmHg 89%
    09:00 -10°C° 0 mm 5 mps 748 mmHg 88%
    10:00 -9°C° 0.1 mm 6 mps 748 mmHg 86%
    11:00 -9°C° 0.1 mm 6 mps 747 mmHg 84%
    12:00 -8°C° 0.1 mm 6 mps 747 mmHg 82%
    13:00 -6°C° 0.1 mm 6 mps 747 mmHg 82%
    14:00 -6°C° 0.1 mm 6 mps 746 mmHg 82%
    15:00 -6°C° 0.1 mm 5 mps 746 mmHg 82%
    16:00 -6°C° 0 mm 5 mps 746 mmHg 82%
    17:00 -6°C° 0 mm 5 mps 746 mmHg 82%
    18:00 -6°C° 0 mm 5 mps 746 mmHg 82%
    19:00 -6°C° 0 mm 5 mps 746 mmHg 83%
    20:00 -6°C° 0 mm 5 mps 746 mmHg 83%
    21:00 -6°C° 0 mm 5 mps 746 mmHg 84%
    22:00 -6°C° 0 mm 5 mps 745 mmHg 84%
    23:00 -6°C° 0 mm 5 mps 745 mmHg 85%

    25 November, Sunday

    Time Temperature Precipitation Wind Pressure Humidity
    00:00 -6°C° 0 mm 5 mps 745 mmHg 85%
    01:00 -6°C° 0.1 mm 5 mps 745 mmHg 85%
    02:00 -6°C° 0.1 mm 5 mps 745 mmHg 86%
    03:00 -6°C° 0.1 mm 6 mps 745 mmHg 86%
    04:00 -6°C° 0.1 mm 5 mps 745 mmHg 86%
    05:00 -5°C° 0.1 mm 5 mps 746 mmHg 85%
    06:00 -5°C° 0.1 mm 5 mps 746 mmHg 85%
    07:00 -6°C° 0 mm 5 mps 747 mmHg 86%
    08:00 -5°C° 0 mm 4 mps 747 mmHg 87%
    09:00 -7°C° 0 mm 4 mps 748 mmHg 89%
    10:00 -5°C° 0 mm 4 mps 748 mmHg 88%
    11:00 -5°C° 0 mm 3 mps 749 mmHg 87%
    12:00 -5°C° 0 mm 3 mps 749 mmHg 86%
    13:00 -5°C° 0 mm 3 mps 749 mmHg 87%
    14:00 -5°C° 0 mm 3 mps 749 mmHg 89%
    15:00 -5°C° 0 mm 2 mps 750 mmHg 90%
    16:00 -5°C° 0 mm 2 mps 750 mmHg 91%
    17:00 -5°C° 0 mm 2 mps 750 mmHg 92%
    18:00 -6°C° 0 mm 2 mps 750 mmHg 94%
    19:00 -6°C° 0 mm 2 mps 750 mmHg 94%
    20:00 -6°C° 0 mm 2 mps 750 mmHg 94%
    21:00 -6°C° 0 mm 2 mps 750 mmHg 94%
    22:00 -6°C° 0 mm 2 mps 749 mmHg 95%
    23:00 -7°C° 0 mm 2 mps 749 mmHg 95%

    26 November, Monday

    Time Temperature Precipitation Wind Pressure Humidity
    00:00 -7°C° 0 mm 2 mps 749 mmHg 96%
    01:00 -6°C° 0 mm 1 mps 748 mmHg 96%
    02:00 -6°C° 0 mm 1 mps 748 mmHg 96%
    03:00 -6°C° 0 mm 1 mps 747 mmHg 95%
    04:00 -6°C° 0.1 mm 1 mps 747 mmHg 95%
    05:00 -6°C° 0.1 mm 1 mps 746 mmHg 95%
    06:00 -4°C° 0.1 mm 1 mps 746 mmHg 95%
    07:00 -6°C° 0.3 mm 2 mps 745 mmHg 95%
    08:00 -6°C° 0.3 mm 2 mps 745 mmHg 95%
    09:00 -5°C° 0.3 mm 2 mps 744 mmHg 95%
    10:00 -5°C° 0.4 mm 2 mps 744 mmHg 95%
    11:00 -5°C° 0.4 mm 2 mps 743 mmHg 94%
    12:00 -4°C° 0.4 mm 2 mps 743 mmHg 94%
    13:00 -5°C° 0.3 mm 2 mps 742 mmHg 94%
    14:00 -5°C° 0.3 mm 2 mps 742 mmHg 94%
    15:00 -5°C° 0.3 mm 2 mps 741 mmHg 95%
    16:00 -5°C° 0.2 mm 2 mps 741 mmHg 95%
    17:00 -5°C° 0.2 mm 2 mps 741 mmHg 95%
    18:00 -6°C° 0.2 mm 2 mps 741 mmHg 95%
    19:00 -7°C° 0.1 mm 3 mps 741 mmHg 95%
    20:00 -7°C° 0.1 mm 3 mps 741 mmHg 94%
    21:00 -7°C° 0.1 mm 3 mps 741 mmHg 94%
    22:00 -7°C° 0.2 mm 3 mps 741 mmHg 93%
    23:00 -7°C° 0.2 mm 3 mps 741 mmHg 93%
    Show more